Вернуться в каталог

AAC-HSI-SAT3

АктивенНаукаSSO
NORAD 58848·PAYLOAD·🇬🇧 United Kingdom

Запущен Nov 11, 2023 с Vandenberg Space Force Base

Loading…

Ближайшие Пролёты (ближайшие 24 часа)

TLE

СвежийSource: Space-Track

Эпоха: Sep 14, 2026, 15:29 UTC

1 58848U 23174DH  26257.64569728  .00001743  00000-0  93598-4 0  9992
2 58848  97.3319 314.0587 0011894  61.5791 298.6640 15.16136701157455

Отслеживайте AAC-HSI-SAT3 в реальном времени с AllMySat

Download on the App Store